www.pogodaiklimat.ru

Погода и климат >> Архив погоды >> Россия >> Ненецкий АО >> Мыс Белый Нос


ПОГОДА на Мысе Белый Нос

  • Прогноз погоды на Мысе Белый Нос
  • Монитор погоды на Мысе Белый Нос

АРХИВ ПОГОДЫ на Мысе Белый Нос

Время (UTC), дата Ветер
(напр.,м/с)
 
Видим.   Явления Облачность Т
(С)
Тd
(С)
f
(%)
Тe
(С)
Тes
(С)
Комфортность P
(гПа)
Po
(гПа)
Тmin
(С)
Tmax
(С)
R
(мм)
R24
(мм)
S
(см)
09 16.07 СВ 12-15
{16}
н/о н/о +7.3 +6.2 93 +1 +1 1016.1 1015.4
12 16.07 В 12-16
{18}
20 км 10/10 300 м
[Sc]
+8.8 +7.7 93 +3 +3 1013.6 1012.9
15 16.07 В 12-17
{19}
20 км 9/9 300 м
[Sc]
+11.3 +9.2 87 +7 +7 1011.6 1010.9 +11.4
18 16.07 В 13-20
{20}
20 км 9/4 300 м
[Sc Ac trans Cc]
+11.6 +9.7 88 +7 +7 1009.1 1008.4
21 16.07 В 12-16
{19}
н/о н/о +11.0 +9.7 92 +6 +6 1008.2 1007.4
00 17.07 СВ 3
{16}
20 км 4/0
[Ci fib]
+12.3 +11.0 92 +11 +11 1009.2 1008.5
03 17.07 В 5 20 км 6/0
[Ci fib]
+18.8 +14.4 76 +19 +21 1008.7 1008.0 +10.8
06 17.07 З 1 20 км 1/0
[Ci fib]
+17.7 +14.0 79 +19 +28 1009.3 1008.6
09 17.07 СЗ 7-10
{10}
н/о н/о +9.1 +7.1 87 +5 +5 1011.0 1010.3
12 17.07 СЗ 10-14
{14}
500 м туман ?/? +7.1 +5.1 87 +1 +1 1013.3 1012.6
15 17.07 СЗ 8-11
{13}
4000 м гроза, ливневой дождь 10/10 300 м
[Cb calv]
+7.8 +6.3 90 +3 +3 1013.8 1013.0 +23.1 20
18 17.07 СЗ 7
{13}
4000 м слаб. ливневой дождь {гроза} 10/10 300 м
[Sc diur, vesp]
+6.4 +4.9 90 +1 +1 1015.6 1014.9
21 17.07 С 7
{11}
н/о н/о +7.9 +6.2 89 +3 +3 1015.8 1015.0
00 18.07 С 8-11
{11}
20 км {гроза, ливн. осадки} 10/0
[Ac As]
+7.6 +4.8 82 +3 +3 1016.2 1015.4
03 18.07 С 9-11
{13}
4000 м слаб. дождь 10/3 300 м
[St Ac As]
+7.5 +5.5 87 +2 +2 1016.9 1016.1 +5.8 18
06 18.07 С 9-12
{13}
4000 м слаб. дождь 10/10 600 м
[Sc]
+7.1 +4.8 85 +2 +2 1017.0 1016.3
09 18.07 С 10-13
{14}
н/о н/о +7.7 +5.1 84 +2 +2 1016.7 1016.0
12 18.07 С 12-17
{17}
4000 м слаб. дождь 10/10 300 м
[Frnb Ns]
+6.7 +5.0 89 0 0 1015.9 1015.2
15 18.07 С 10-13
{17}
20 км {дождь} 10/10 300 м
[Sc]
+6.6 +5.0 90 +1 +1 1016.6 1015.9 +7.8 4
18 18.07 СВ 10-13
{14}
20 км {дождь} 10/10 300 м
[Sc]
+6.3 +5.0 91 0 0 1016.3 1015.5
21 18.07 СВ 10-13
{14}
н/о н/о +6.7 +5.4 91 +1 +1 1015.6 1014.9
00 19.07 СВ 9-12
{13}
4000 м слаб. дождь 10/10 300 м
[Frnb Ns]
+6.1 +4.7 91 0 0 1015.5 1014.8
03 19.07 СВ 9-13
{14}
4000 м слаб. дождь 10/10 300 м
[Frnb Ns]
+6.2 +4.7 90 0 0 1014.4 1013.7 +6.0 5
06 19.07 СВ 10-13
{14}
20 км {дождь} 10/0
[Ac As]
+6.3 +4.7 89 0 0 1013.3 1012.6
09 19.07 СВ 11-14
{14}
н/о н/о +6.5 +4.6 88 0 0 1012.4 1011.6
12 19.07 СВ 11-14
{15}
20 км 9/0
[Ac trans]
+7.0 +4.6 85 +1 +1 1011.2 1010.4
15 19.07 СВ 10-13
{14}
20 км 10/4 300 м
[Sc Ac und]
+6.4 +4.4 87 0 0 1009.3 1008.6 +7.3 2
18 19.07 СВ 7
{13}
4000 м дымка {туман} 9/8 300 м
[Cu hum Ci fib]
+7.2 +5.8 91 +2 +2 1008.4 1007.7
21 19.07 СВ 5 н/о н/о +8.3 +6.6 89 +5 +5 1007.1 1006.4
00 20.07 В 4 4000 м дымка 10/10 300 м
[St]
+8.5 +6.7 88 +5 +5 1006.7 1005.9
03 20.07 ЮЗ 3 500 м туман ?/? +9.9 +8.7 92 +8 +8 1006.2 1005.5 +6.0
06 20.07 Ю 5 500 м туман ?/? +6.4 +5.2 92 +2 +2 1007.3 1006.5 +5.8
09 20.07 Ю 5 н/о н/о +8.8 +7.7 93 +5 +5 1008.3 1007.6
12 20.07 Ю 5 2000 м морось {туман} 10/10 300 м
[St]
+10.1 +8.8 92 +7 +7 1009.1 1008.4
15 20.07 Ю 3 4000 м дымка 10/10 300 м
[St]
+9.4 +8.2 92 +7 +7 1009.2 1008.5 +10.5 0.6
18 20.07 ЮЗ 2 500 м туман ?/? +8.7 +7.5 92 +7 +7 1009.8 1009.0
21 20.07 ЮЗ 4 н/о н/о +7.8 +6.7 93 +4 +4 1010.4 1009.7
00 21.07 ЮЗ 5 н/о н/о +6.6 +5.5 93 +2 +2 1011.5 1010.8
03 21.07 З 5 1000 м дымка {туман} 10/10 300 м
[St]
+6.5 +5.3 92 +2 +2 1012.1 1011.4 +6.5 0.3
06 21.07 З 4 20 км {туман} 10/10 300 м
[Cu Sc]
+6.4 +4.2 86 +3 +3 1013.2 1012.5 +5.6
09 21.07 З 4 н/о н/о +7.1 +4.3 82 +4 +4 1014.1 1013.4
12 21.07 З 5 4000 м дымка 10/0
[Ac As]
+6.9 +4.7 86 +3 +4 1015.2 1014.4
15 21.07 З 6 500 м туман ?/? +4.9 +3.6 91 -0 -0 1015.8 1015.1 +7.9
18 21.07 З 4 500 м туман ?/? +4.5 +3.3 92 0 0 1016.8 1016.0
21 21.07 СЗ 4 н/о н/о +4.6 +3.5 93 0 0 1016.9 1016.1
00 22.07 СЗ 3 500 м туман ?/? +4.4 +3.2 92 +1 +1 1017.9 1017.2
03 22.07 СВ 2 20 км в посл. час туман 8/8 300 м
[St]
+6.8 +5.6 92 +4 +5 1018.8 1018.1 +4.2
06 22.07 СВ 6 20 км {туман} 6/1 300 м
[Cu hum Ci fib]
+9.7 +5.1 73 +6 +9 1019.3 1018.6
09 22.07 СВ 8-10
{10}
н/о н/о +10.3 +3.9 64 +7 +7 1020.0 1019.3
12 22.07 СВ 8-11
{11}
20 км 8/4 300 м
[Cu hum Ci fib]
+9.0 +3.8 70 +5 +5 1020.6 1019.9
15 22.07 СВ 7-10
{11}
20 км 8/3 300 м
[Cu hum Ci fib]
+8.2 +4.0 75 +4 +4 1021.2 1020.4 +11.2
18 22.07 СВ 7
{10}
500 м туман ?/? +4.8 +3.3 90 -1 -1 1021.5 1020.8
21 22.07 СВ 7 н/о н/о +4.9 +3.7 92 -1 -1 1021.8 1021.0
00 23.07 СВ 6 500 м туман ?/? +5.9 +4.7 92 +1 +1 1021.6 1020.9
03 23.07 СВ 7 20 км {туман} 6/3 300 м
[Cu hum Ci fib]
+9.6 +6.4 80 +6 +6 1021.4 1020.7 +4.2
06 23.07 СВ 9-11
{11}
20 км {туман} 8/0
[Cc]
+10.5 +6.0 74 +7 +7 1021.1 1020.4

 

Местоположение метеостанции Мыс Белый Нос (Ненецкий АО, Россия): широта 69.60 долгота 60.21 высота над уровнем моря 6 м.

В архиве по умолчанию представлена погода на Мысе Белый Нос за последнюю неделю. Архивные данные за месяц целиком и за предыдущие месяцы, начиная с января 2011 года, Вы можете получить, выбрав интересующий диапазон дат из раскрывающегося списка и нажав кнопку "Ввод!".


*Определитесь, кто Вы:
робот инопланетянин человек

Внимание! Время в таблицах - всемирное. Для получения местного времени необходимо прибавить поправку, которая равна 3 ч.

Смотрите также архив погоды в соседних городах и на ближайших метеорологических станциях:

Погода в Амдерме (Ненецкий АО, Россия) (60 км)
Погода в Имени Федорова (Ненецкий АО, Россия) (104 км)
Погода в Варандее (Ненецкий АО, Россия) (122 км)
Погода в Усть-Каре (Ненецкий АО, Россия) (189 км)
Погода на Мысе Константиновском (Ненецкий АО, Россия) (220 км)
Погода в Марресале (Ямало-Ненецкий АО, Россия) (255 км)
Погода в Хорей-Вере (Ненецкий АО, Россия) (257 км)
Погода в Ходоварихе (Ненецкий АО, Россия) (265 км)
Погода в Воркуте (Коми, Россия) (281 км)
Погода в Харуте (Ненецкий АО, Россия) (307 км)

Пояснения к столбцам:

Ветер - указаны скорость ветра в м/с - средняя за 10 мин, порывы в срок и между сроками (в фигурных скобках) и направление, откуда дует ветер: С - северный, СВ - северо-восточный, В - восточный, ЮВ - юго-восточный, Ю - южный, ЮЗ - юго-западный, З - западный, СЗ - северо-западный.
Видимость - горизонтальная дальность видимости в метрах или километрах. При видимости от 1 до 10 км при отсутствии осадков обычно наблюдается дымка, при ухудшении видимости до 1 км и менее - туман. В сухую погоду видимость может ухудшаться дымом, пылью или мглою.
Явления - указаны атмосферные явления, наблюдавшиеся в срок или в последний час перед сроком; фигурными скобками обозначены явления, наблюдавшиеся между сроками (за 1-3 часа до срока); квадратными скобками обозначены град или гололедные отложения с указанием их диаметра в мм.
Облачность - указаны через наклонную черту общая и нижняя облачность в баллах и высота нижней границы облаков в метрах; квадратными скобками обозначены формы облаков: Ci - перистые, Cs - перисто-слоистые, Cc - перисто-кучевые, Ac - высококучевые, As - высокослоистые, Sc - слоисто-кучевые, Ns - слоисто-дождевые, Cu - кучевые, Cb - кучево-дождевые. Подробнее классификацию облаков см. в Атласе облаков (PDF).
T - Температура воздуха - температура, измеренная на высоте 2 м над землей.
Td - Температура точки росы - температура, при понижении до которой содержащийся в воздухе водяной пар достигнет насыщения.
f - Относительная влажность воздуха - влажноcть воздуха, измеренная на высоте 2 м над землей.
Te - Эффективная температура - температура, которую ощущает одетый по сезону человек в тени. Характеристика душности погоды. При расчете учитывается влияние влажности воздуха и скорости ветра на теплоощущения человека.
Tes - Эффективная температура на солнце - температура, которую ощущает человек, с поправкой на солнечный нагрев. Характеристика знойности погоды. Зависит от высоты солнца над горизонтом, облачности и скорости ветра. Ночью, в пасмурную погоду, а также при ветре 12 м/с и более поправка равна нулю.
P - Атмосферное давление - приведенное к уровню моря атмосферное давление.
Po - Атмосферное давление - измеренное на уровне метеостанции атмосферное давление.
Tmin - Минимальная температура - минимум температуры воздуха на высоте 2 м над землей.
Tmax - Максимальная температура - максимум температуры воздуха на высоте 2 м над землей.
R - Количество осадков - Количество выпавших осадков за период времени, мм. При наведении курсора мыши на число - период времени, за который выпало указанное количество осадков.
R24 - Количество осадков - Количество выпавших осадков за 24 часа, мм.
S - Снежный покров - Высота снежного покрова, см. При наведении курсора мыши на число - состояние снежного покрова и степень покрытия местности в баллах.